Preview of NWS' New Version of Forecast
This preview is not operational and should not be used for support decisions.
Latest weather observations around

Emigrant Gap, Blue Canyon Nyack Airport (KBLU)

Using International System of Units (Switch to English Units)
Date/ Time (PDT) Wind (kph) Vis. (km) Weather Sky Cond. Temp (°C) Rel. Humidity Wind Chill (°C) Heat Index (°C) Pressure Precip. (cm)
Air Dwpt 6 hour Altimeter (hPa) Sea level (hPa) 1 hr 3 hr 6 hr
Max Min
Aug 24 21:52 Calm 16.09 Clear CLR 19 11     57%     1023.7 1014.1      
Aug 24 20:52 Calm 16.09 Clear CLR 20 11     55%     1023.4 1013.9      
Aug 24 19:52 W 5 16.09 Clear CLR 22 11     49%   21   1013.6      
Aug 24 18:52 SSW 8 16.09 Clear CLR 24 10     41%   23 1023 1012.7      
Aug 24 17:52 11 16.09 Clear CLR 25 9     37%   25 1023 1012.5      
Aug 24 16:52 WSW 11 16.09 Clear CLR 25 9     37%   25 1023 1012.2      
Aug 24 15:52 9 16.09 Clear CLR 25 10     39%   25   1012.5      
Aug 24 14:52 W 13 16.09 Clear CLR 26 10     37%   25 1023 1012.4      
Aug 24 13:52 W 9 16.09 Clear CLR 25 11     40%   25 1023.4 1012.7      
Aug 24 12:52 S 15 16.09 Clear CLR 25 11     40%   25 1023.4 1012.8      
Aug 24 11:52 S 11 16.09 Clear CLR 24 11     43%   23 1023.4 1013.3      
Aug 24 10:52 S 11 16.09 Clear CLR 23 11     46%   23   1012.8      
Aug 24 09:52 W 8 16.09 Clear CLR 22 10     46%   22   1013.2      
Aug 24 08:52 W 5 16.09 Clear CLR 21 11     51%     1022.4 1012.5      
Aug 24 07:52 S 8 16.09 Clear CLR 20 11     57%     1022 1012.1      
Aug 24 06:52 SSE 5 16.09 Clear CLR 20 11     55%     1021.3 1010.8      
Aug 24 05:52 Calm 16.09 Clear CLR 20 11     55%     1020.7 1009.9      
Aug 24 04:52 Calm 16.09 Clear CLR 20 11     55%     1020.3 1009.7      
Notice The following observation data may not be complete
Aug 24 03:52 Calm 16.09 Clear CLR   11      %     1020.3 1009.1      
Notice The following observation data may not be complete
Aug 24 02:52 Calm 16.09 Clear CLR   10      %     1020 1009.3      
Aug 24 01:52 NNE 5 16.09 Clear CLR 21 11     53%     1020 1009.2      
Aug 24 00:52 Calm 16.09 Clear CLR 19 12     61%     1020 1009.4      
Aug 23 23:52 E 5 16.09 Clear CLR 19 12     63%     1020 1009.6      
Aug 23 22:52 NE 5 16.09 Clear CLR 21 11     54%     1020 1009.3      
Aug 23 21:52 Calm 16.09 Clear CLR 20 11     57%     1020 1009.6      
Aug 23 20:52 NW 5 16.09 Clear CLR 21 12     57%     1019.7 1009.4      
Aug 23 19:52 W 5 16.09 Clear CLR 22 12     55%   21 1019 1008.8      
Aug 23 18:52 W 9 16.09 Clear CLR 24 12     48%   24 1018.6 1008.4      
Aug 23 17:52 W 15 16.09 Clear CLR 25 12     43%   25 1018.6 1008      
Aug 23 16:52 W 11 16.09 Clear CLR 26 11     40%   25 1018.3 1007.5      
Aug 23 15:52 9 16.09 Clear CLR 26 11     38%   26 1018.3 1007.6      
Aug 23 14:52 9 16.09 Clear CLR 26 11     40%   25 1018.6 1007.4      
Aug 23 13:52 11 16.09 Clear CLR 25 11     40%   25 1018.6 1007.9      
Aug 23 12:52 SSW 13 16.09 Clear CLR 24 11     43%   24 1019 1008.3      
Aug 23 11:52 9 16.09 Clear CLR 24 13     50%   24 1019 1008.2      
Aug 23 10:52 11 16.09 Clear CLR 23 11     45%   23 1018.6 1008      
Aug 23 09:52 SSW 8 16.09 Clear CLR 23 6     34%   22   1008.1      
Aug 23 08:52 Calm 16.09 Clear CLR 22 8     40%   22 1018 1007.6      
Aug 23 07:52 Calm 16.09 Clear CLR 22 5     34%   21 1017.6 1007.6      
Notice The following observation data may not be complete
Aug 23 06:52 Calm 16.09 Clear CLR   6      %     1016.9 1007      
Aug 23 05:52 Calm 16.09 Clear CLR 19 9     52%     1016.3 1006.4      
Notice The following observation data may not be complete
Aug 23 04:52 Calm 16.09 Clear CLR   7      %     1016.3 1005.5      
Aug 23 03:52 Calm 16.09 Clear CLR 19 8     50%     1016.3 1005.8      
Aug 23 02:52 Calm 16.09 Clear CLR 21 7     40%     1016.3 1005.6      
Aug 23 01:52 ENE 5 16.09 Clear CLR 20 4     35%     1016.6 1006.2      
Aug 23 00:52 Calm 16.09 Clear CLR 21 9     46%     1016.6 1005.9      
Aug 22 23:52 Calm 16.09 Clear CLR 21 8     44%     1016.9 1006.3      
Notice The following observation data may not be complete
Aug 22 22:52 8 16.09 Clear CLR   12      %     1016.6 1006.1      
Aug 22 21:52 8 16.09 Clear CLR 20 12     61%     1016.9 1006.8      
Aug 22 20:52 Calm 16.09 Clear CLR 21 12     57%     1016.9 1007.1      
Aug 22 19:52 NNW 8 16.09 Clear CLR 21 12     59%     1016.6 1007.2      
Aug 22 18:52 W 8 16.09 Clear CLR 23 12     51%   22 1016.6 1006.9      
Aug 22 17:52 W 13 16.09 Clear CLR 23 13     52%   23   1006.9      
Aug 22 16:52 W 9 16.09 Clear CLR 24 12     47%   24 1016.6 1006.3      
Aug 22 15:52 W 17 16.09 Clear CLR 24 12     45%   24 1016.6 1006.4      
Aug 22 14:52 W 15 16.09 Clear CLR 24 11     43%   23 1016.9 1007.1      
Aug 22 13:52 11 16.09 Clear CLR 23 11     45%   23   1007.7      
Aug 22 12:52 W 15 16.09 Clear CLR 24 12     46%   24 1018 1008.1      
Aug 22 11:52 11 16.09 Clear CLR 23 11     48%   22   1008.4      
Aug 22 10:52 W 11 16.09 Clear CLR 23 11     45%   23   1008.1      
Aug 22 09:52 Calm 16.09 Clear CLR 22 10     47%   21 1018 1008.6      
Aug 22 08:52 N 8 16.09 Clear CLR 21 11     53%       1009      
Aug 22 07:52 NNE 5 16.09 Clear CLR 19 10     56%     1018 1008.9      
Aug 22 06:52 NNE 5 16.09 Clear CLR 18 8     54%     1017.6 1008.4      
Aug 22 05:52 NNE 5 16.09 Clear CLR 17 8     56%     1017.6 1008.2      
Aug 22 04:52 N 5 16.09 Clear CLR 18 8     52%     1017.6 1007.5      
Notice The following observation data may not be complete
Aug 22 03:52 Calm 16.09 Clear CLR   8      %     1018 1008.3      
Aug 22 02:52 ENE 5 16.09 Clear CLR 18 6     45%     1018.3 1008.2      
Notice The following observation data may not be complete
Aug 22 01:52 Calm 16.09 Clear CLR   4      %     1019 1008.7      
Aug 22 00:52 N 5 16.09 Clear CLR 18 6     43%     1019.3 1009.5      
Aug 21 23:52 Calm 16.09 Clear CLR 18 6     45%     1020 1010      
Aug 21 22:52 ENE 5 16.09 Clear CLR 18 7     50%     1020 1010.2      
Aug 21 21:52 NW 8 16.09 Clear CLR 18 8     50%     1020.7 1011      
Aug 21 19:52 Calm 16.09 Clear CLR 19 8     47%     1020.3 1011.2      
May 14 21:52 Calm 16.09 Clear CLR 11 8     86%     1017.6 1012.2      
May 14 10:52 11 16.09 Mostly Clear FEW055 16 1     37%     1018 1012.1      
May 13 09:52 Calm 16.09 Clear   12 4     57%     1018 1013.3      
May 12 18:52 8 16.09 Cloudy OVC090 12 3     56%     1015.2 1011.2      
May 11 21:52 11 16.09 Clear CLR 8 -4     42% 6   1013.2 1008.8      
May 11 17:52 NNE 17 16.09 Clear CLR 13 -7     24%     1012.9 1007.6      
May 11 15:52 NNE 17 16.09 Clear CLR 14 -8     21%     1012.9 1007.4      
Jun 12 01:33 SSE 5 2.01 Light Snow and Fog/Mist BKN003 OVC007 1 1     100% -1   1014.6   0    
Jun 12 01:18 SSW 5 4.02 Light Snow and Fog/Mist OVC004 1 1     100% -1   1014.6   0    
Jun 11 17:08 9 8.05 Fog/Mist SCT004 BKN013 OVC034 2 2     96% -1   1013.6   0    
Jun 11 15:52 W 11 4.02 Light Snow and Fog/Mist FEW010 BKN018 OVC049 2 1     92% -1   1013.9 1012.7 0    
Jun 11 13:02   16.09 Mostly Cloudy FEW022 SCT029 BKN050 6 0     67%     1012.5        
Jun 11 12:52 SSW 17 16.09 Clear   6 -1     64% 2   1012.5 1010.5      
Jun 11 09:59 8 16.09 Cloudy FEW019 BKN028 OVC035 4 1     76% 3            
Jun 11 09:42 S 15 16.09 Mostly Cloudy FEW020 BKN028 BKN034 4 1     79% 0   1011.5        
Jun 11 04:52 8 4.02 Fog/Mist OVC002 3 3     100% 1     1008.3      
Jun 11 02:52 S 9 1.21 Fog/Mist VV002 4 4     100% 2     1008.8      
Jun 11 00:43 S 11 2.01 Fog/Mist OVC002 4 4     100% 2   1012.9        
Jun 10 22:52 S 15 16.09 Cloudy OVC005 6 5     96% 3   1013.6 1010.2      
Jun 10 03:00 SSE 18 4.83 Fog/Mist BKN002 OVC009 7 7     100% 3   1014.2        
Jun 10 02:14 SSE 17 2.01 Fog/Mist OVC002 7 7     100% 4   1014.9        
Jun 09 21:27 S 15 2.82 Fog/Mist BKN002 BKN006 OVC016 8 8     97% 6   1015.6        
Jun 09 18:52 SSW 18 16.09 Cloudy SCT007 BKN010 OVC017 9 8     93% 7     1011.6      
Jun 09 13:52 SW 17 0.4 Clear   9 9     100% 6   1016.3 1012.8 0    
Jun 09 10:52 SSW 15 0.4 Fog VV002 8 8     100% 6   1015.9 1012.7     0
Jun 09 06:35 S 15 0.4 Fog VV002 8 8     100% 5   1016.3        
Jun 09 05:52 S 11 0.4 Fog VV001 8 8     100% 6   1016.3 1012.9      
Jun 09 03:52 S 9 0.4 Fog VV002 8 8     100% 6   1016.9 1013.9      
Jun 09 02:52 S 11 0.8 Fog VV002 8 8     100% 6   1017.3 1014.3      
Notice The following observation data may not be complete
Jun 09 02:08   2.41 Fog/Mist OVC002          %              
Jun 09 01:48 SSW 8 1.21 Fog/Mist VV002 8 8     100% 7   1017.6        
Jun 08 18:52 S 11 0.4 Fog VV002 9 9     100% 7   1019 1015.6      
Notice The following observation data may not be complete
Jun 08 17:42   2.01 Fog/Mist OVC002          %              
Jun 08 11:52   2.82 Light Rain and Fog/Mist SCT006 BKN010 OVC021 6 6     97%     1020 1016.7 0    
Notice The following observation data may not be complete
Jun 08 11:20   3.22 Rain and Fog/Mist FEW005 SCT012 OVC021          %         0    
Jun 07 23:52 SE 11 16.09 Clear CLR 11 4     63%       1010.2      
Jun 07 22:52 SE 11 16.09 Clear CLR 11 4     65%     1017.6 1011      
Jun 07 20:52 S 13 16.09 Clear CLR 14 3     49%     1017.3 1009.9      
Jun 05 21:52 Calm 16.09 Clear CLR 15 0     36%       1011.4